User: anonymous   Login
Location: Unspecified
(0.0000°N, 0.0000°E)
Time: 08:28:37
(UTC+00:00)
Language:

APRIZESAT 10 - Orbit

View from above orbital plane
View from above orbital plane
View from above satellite
View from above satellite

Ground track
Ground track

The orbit data is extracted from the following two-line orbital elements,

1 40019U 14033K   19345.80315614  .00000002  00000-0  87861-5 0  9992
2 40019  97.7288 181.3708 0083187 310.4992  48.8984 14.67016657293288
Epoch (UTC): 11 December 2019 19:16:32
Eccentricity: 0.0083187
inclination: 97.7288°
perigee height: 612 km
apogee height: 729 km
right ascension of ascending node: 181.3708°
argument of perigee: 310.4992°
revolutions per day: 14.67016657
mean anomaly at epoch: 48.8984°
orbit number at epoch: 29328

The dashed part of the orbit path shows where the satellite is in the earth's shadow,  

DLR